Content
SEND FEEDBACK

Daily
Averages
Monthly
Summary
United States of America

MONTICELLO, INDIANA


Home > North America > United States > Indiana
Elevation: 676 feet     Latitude: 40 44N     Longitude: 086 41W

WEATHER
 
SELECT A DAY
Number of Records: 60,356;   Date Range: 10/28/11 - 7/27/14
 
SHARE

PRINT THIS DATA

[ ← Previous Day ]
WEATHER ALMANAC - FEBRUARY 13, 2013
[ Next Day → ]
[ °C ]   °F
Weather ElementAverageHighLow
Temperature32.1 °F44.6 °F (4:15 pm)23 °F (2:35 am)
Dewpoint27 °F30.2 °F (1:55 pm)21.2 °F (12:55 am)
Humidity82.9 %100 % (2:35 am)53 % (4:35 pm)
Barometer29.83 in29.95 in (12:55 am)29.75 in (3:15 pm)
Wind Speed5 mph13.8 mph (4:35 pm)
Wind Gust19.6 mph (4:55 pm)
Weather ElementAverage
Visibility8.1 mi
Wind DirectionSE (133.4 °)

Weather ElementTotal
Precipitation---
Heating Degree Days31.2 (Base 65)
Averaged from 71 records on February 13, 2013
WEATHER CONDITIONS BREAKOUT
WIND DIRECTION BREAKOUT
WEATHER BY HOUR - FEBRUARY 13, 2013
[ °C ]   °F
Local TimeTemperatureDewpointHumidityBarometerVisibilityWind DirectionWind SpeedGust SpeedPrecipitationEventsConditions
12:35 AM26.6 °F23.0 °F86 %29.94 in10.0 miCalmClear
12:55 AM24.8 °F21.2 °F86 %29.95 in10.0 miCalmClear
1:15 AM26.6 °F23.0 °F86 %29.94 in10.0 miCalmClear
1:35 AM26.6 °F23.0 °F86 %29.94 in7.0 miCalmClear
1:55 AM24.8 °F23.0 °F93 %29.94 in7.0 miCalmClear
2:15 AM26.6 °F23.0 °F86 %29.94 in7.0 miCalmClear
2:35 AM23.0 °F23.0 °F100 %29.93 in7.0 miCalmClear
2:55 AM24.8 °F23.0 °F93 %29.92 in5.0 miCalmClear
3:15 AM24.8 °F23.0 °F93 %29.91 in5.0 miCalmClear
3:35 AM26.6 °F23.0 °F86 %29.90 in7.0 miCalmClear
3:55 AM26.6 °F24.8 °F93 %29.89 in5.0 miCalmClear
4:15 AM26.6 °F24.8 °F93 %29.89 in7.0 miCalmClear
4:35 AM26.6 °F23.0 °F86 %29.89 in5.0 miCalmClear
4:55 AM26.6 °F24.8 °F93 %29.88 in7.0 miCalmClear
5:15 AM26.6 °F23.0 °F86 %29.88 in7.0 miCalmClear
5:35 AM26.6 °F23.0 °F86 %29.86 in7.0 miCalmClear
5:55 AM23.0 °F23.0 °F100 %29.86 in5.0 miCalmClear
6:15 AM24.8 °F23.0 °F93 %29.85 in5.0 miCalmClear
6:35 AM23.0 °F23.0 °F100 %29.85 in4.0 miCalmClear
6:55 AM23.0 °F23.0 °F100 %29.85 in5.0 miCalmClear
7:15 AM24.8 °F23.0 °F93 %29.84 in5.0 miCalmClear
7:35 AM24.8 °F23.0 °F93 %29.84 in4.0 miCalmClear
7:55 AM23.0 °F23.0 °F100 %29.84 in3.0 miCalmClear
8:15 AM23.0 °F23.0 °F100 %29.83 in3.0 miCalmClear
8:35 AM23.0 °F23.0 °F100 %29.84 in3.0 miCalmClear
8:55 AM26.6 °F24.8 °F93 %29.85 in5.0 miSE (140°)5.8 mphClear
9:15 AM28.4 °F26.6 °F93 %29.86 in5.0 miSSE (150°)9.2 mphClear
9:35 AM28.4 °F26.6 °F93 %29.86 in5.0 miSouth (170°)4.6 mphClear
9:55 AM30.2 °F26.6 °F86 %29.86 in7.0 miSouth (170°)4.6 mphClear
10:15 AM30.2 °F26.6 °F86 %29.85 in7.0 miCalmClear
10:35 AM32.0 °F26.6 °F80 %29.85 in10.0 miCalmClear
10:55 AM32.0 °F26.6 °F80 %29.85 in7.0 miSouth (180°)4.6 mphClear
11:15 AM32.0 °F26.6 °F80 %29.85 in10.0 miSouth (190°)5.8 mphClear
11:35 AM33.8 °F26.6 °F75 %29.84 in10.0 miSouth (180°)5.8 mphClear
11:55 AM33.8 °F28.4 °F81 %29.83 in7.0 miSouth (180°)6.9 mphClear
12:15 PM33.8 °F28.4 °F81 %29.83 in7.0 miSSW (200°)8.1 mphClear
12:35 PM35.6 °F28.4 °F75 %29.82 in10.0 miSouth (190°)8.1 mphClear
12:55 PM35.6 °F28.4 °F75 %29.81 in7.0 miSSW (200°)8.1 mphClear
1:15 PM37.4 °F28.4 °F70 %29.81 in10.0 miSW (230°)5.8 mphClear
1:35 PM37.4 °F28.4 °F70 %29.80 in10.0 miSSW (210°)5.8 mphClear
1:55 PM39.2 °F30.2 °F70 %29.78 in10.0 miSW (220°)6.9 mphClear
2:15 PM41.0 °F30.2 °F65 %29.77 in10.0 miSW (220°)6.9 mphClear
2:35 PM41.0 °F30.2 °F65 %29.77 in10.0 miSW (220°)6.9 mphClear
2:55 PM41.0 °F30.2 °F65 %29.76 in10.0 miSW (230°)9.2 mphClear
3:15 PM42.8 °F30.2 °F61 %29.75 in10.0 miSW (220°)9.2 mphClear
3:35 PM42.8 °F30.2 °F61 %29.75 in10.0 miSW (230°)9.2 mphClear
3:55 PM42.8 °F30.2 °F61 %29.75 in10.0 miSW (230°)10.4 mphClear
4:15 PM44.6 °F30.2 °F57 %29.75 in10.0 miWSW (240°)10.4 mphClear
4:35 PM44.6 °F28.4 °F53 %29.75 in10.0 miWest (260°)13.8 mphClear
4:55 PM44.6 °F28.4 °F53 %29.75 in10.0 miWest (260°)12.7 mph19.6 mphClear
5:15 PM42.8 °F30.2 °F61 %29.76 in10.0 miWest (260°)12.7 mphClear
5:35 PM41.0 °F30.2 °F65 %29.77 in10.0 miWest (270°)9.2 mph17.3 mphClear
5:55 PM39.2 °F30.2 °F70 %29.77 in10.0 miWest (260°)10.4 mphClear
6:15 PM37.4 °F30.2 °F75 %29.78 in10.0 miWSW (250°)8.1 mphClear
6:35 PM35.6 °F30.2 °F81 %29.78 in10.0 miWSW (250°)8.1 mphClear
6:55 PM33.8 °F30.2 °F87 %29.78 in10.0 miWSW (240°)6.9 mphClear
7:15 PM33.8 °F30.2 °F87 %29.78 in10.0 miSW (220°)6.9 mphClear
7:35 PM33.8 °F30.2 °F87 %29.78 in10.0 miSSW (200°)6.9 mphClear
7:55 PM33.8 °F30.2 °F87 %29.79 in10.0 miSW (220°)6.9 mphClear
8:15 PM33.8 °F30.2 °F87 %29.79 in10.0 miSSW (210°)6.9 mphClear
8:35 PM33.8 °F30.2 °F87 %29.80 in10.0 miSW (220°)9.2 mphClear
8:55 PM33.8 °F30.2 °F87 %29.80 in10.0 miSW (230°)8.1 mphClear
9:15 PM33.8 °F30.2 °F87 %29.80 in10.0 miSW (230°)8.1 mphClear
9:35 PM33.8 °F30.2 °F87 %29.80 in10.0 miSW (220°)9.2 mphMostly Cloudy
9:55 PM35.6 °F30.2 °F81 %29.80 in10.0 miSW (220°)10.4 mphOvercast
10:15 PM35.6 °F30.2 °F81 %29.81 in10.0 miSW (220°)10.4 mphOvercast
10:35 PM33.8 °F30.2 °F87 %29.80 in10.0 miSSW (210°)8.1 mphOvercast
10:55 PM33.8 °F30.2 °F87 %29.80 in10.0 miSSW (200°)6.9 mphOvercast
11:15 PM33.8 °F30.2 °F87 %29.80 in10.0 miSSW (200°)6.9 mphOvercast
11:35 PM32.0 °F30.2 °F93 %29.80 in10.0 miSSW (210°)8.1 mphOvercast
11:55 PM32.0 °F30.2 °F93 %29.81 in10.0 miSSW (210°)8.1 mphScattered Clouds
Hourly data recorded from KGGP, located miles away from Monticello, Indiana







STORIES FROM OUR PARTNERS